Location: Ottawa
(45.4170°N, 75.7000°W)
Time: 00:13:53
(UTC-04:00)

Amateur Radio Satellites - All Passes

Search period start: 24 October 2014 23:43
Search period end: 25 October 2014 23:43
Location: Ottawa, 45.4170°N, 75.7000°W

Satellite Date Start Highest point End Downlink Frequencies (MHz)
Time Altitude Azimuth
RS-15 24 Oct 23:51:17 00:02:14 71° 311° (NW) 00:13:13 29.354 - 29.394 USB, Beacon 29.352 USB
UOSAT-12 25 Oct 00:03:06 00:07:44 55° 239° (WSW) 00:12:16 437.025 FM, 437.400 FM
FUNcube-1 25 Oct 00:04:51 00:06:22 11° 272° (W) 00:07:52 145.950 - 145.970 MHz USB
MaSat-1 25 Oct 00:53:27 00:57:18 42° 302° (WNW) 01:00:48 437.345 MHz
Oscar 19 25 Oct 01:16:39 01:18:41 12° 87° (E) 01:20:43 437.125 CW, 437.150 USB
JAS-1B 25 Oct 01:51:32 01:57:20 30° 96° (E) 02:03:59 435.800 - 435.900 CW/SSB
AO-Echo 25 Oct 01:56:01 01:59:24 17° 89° (E) 02:02:47 ?
Oscar 16 25 Oct 02:00:28 02:05:03 32° 96° (E) 02:09:36 437.025 USB, Beacon 2401.1428
RS-15 25 Oct 02:07:28 02:16:55 32° 341° (NNW) 02:26:31 29.354 - 29.394 USB, Beacon 29.352 USB
Uribyol 2 25 Oct 02:20:36 02:24:35 22° 92° (E) 02:28:33 436.500 FM
ITAMSAT 1 25 Oct 02:26:33 02:30:41 23° 93° (E) 02:34:47 435.822 SSB
Gurwin Techsat 1B 25 Oct 02:47:04 02:50:55 20° 91° (E) 02:54:44 435.225 FM
Oscar 19 25 Oct 02:53:35 02:58:44 87° 285° (WNW) 03:03:51 437.125 CW, 437.150 USB
TMSAT-1 25 Oct 02:58:22 03:02:02 19° 90° (E) 03:05:42 436.925 FM
AO-27 25 Oct 03:11:32 03:16:43 59° 101° (E) 03:21:51 436.795 MHz FM
AO-7 25 Oct 03:28:32 03:30:38 11° 83° (E) 03:32:45 29.400 - 29.500 MHz
AO-Echo 25 Oct 03:33:22 03:38:40 71° 287° (WNW) 03:43:57 ?
Oscar 16 25 Oct 03:39:47 03:44:24 35° 294° (WNW) 03:49:00 437.025 USB, Beacon 2401.1428
JAS-1B 25 Oct 03:41:49 03:48:10 56° 291° (WNW) 03:55:41 435.800 - 435.900 CW/SSB
Sapphire 25 Oct 03:44:19 03:49:07 34° 111° (ESE) 03:53:57 437.095 MHz 1200 baud AX-25 AFSK
Uribyol 2 25 Oct 03:59:18 04:04:23 53° 290° (WNW) 04:09:24 436.500 FM
ITAMSAT 1 25 Oct 04:05:24 04:10:27 50° 291° (WNW) 04:15:27 435.822 SSB
PCSat 25 Oct 04:06:15 04:11:31 55° 116° (ESE) 04:16:49 145.825 MHz
RS-15 25 Oct 04:24:14 04:33:37 30° 16° (NNE) 04:43:13 29.354 - 29.394 USB, Beacon 29.352 USB
Gurwin Techsat 1B 25 Oct 04:26:02 04:31:17 60° 289° (WNW) 04:36:29 435.225 FM
OPAL 25 Oct 04:30:04 04:34:46 38° 65° (ENE) 04:39:26 ?
Oscar 19 25 Oct 04:34:50 04:37:19 14° 304° (WNW) 04:39:47 437.125 CW, 437.150 USB
TMSAT-1 25 Oct 04:37:09 04:42:24 63° 288° (WNW) 04:47:38 436.925 FM
AO-27 25 Oct 04:51:55 04:55:49 22° 299° (WNW) 04:59:42 436.795 MHz FM
JAS-2 25 Oct 05:09:53 05:15:31 21° 87° (E) 05:21:08 435.800 - 435.900 CW/SSB, 435.910 FM
AO-Echo 25 Oct 05:14:38 05:16:30 12° 305° (NW) 05:18:22 ?
AO-7 25 Oct 05:16:55 05:25:09 61° 104° (ESE) 05:33:22 29.400 - 29.500 MHz
Uosat F 25 Oct 05:18:30 05:23:27 51° 100° (E) 05:28:21 435.120 FM
Sapphire 25 Oct 05:27:19 05:32:26 42° 310° (NW) 05:37:36 437.095 MHz 1200 baud AX-25 AFSK
JAS-1B 25 Oct 05:35:55 05:37:42 11° 309° (NW) 05:39:34 435.800 - 435.900 CW/SSB
PCSat 25 Oct 05:50:33 05:55:14 29° 316° (NW) 05:59:57 145.825 MHz
OPAL 25 Oct 06:09:10 06:13:41 31° 262° (W) 06:18:12 ?
STRAND 1 25 Oct 06:14:50 06:19:31 37° 67° (ENE) 06:24:14 ?
TMSAT-1 25 Oct 06:20:29 06:21:17 10° 307° (NW) 06:22:05 436.925 FM
Hamsat 25 Oct 06:21:09 06:24:56 32° 96° (E) 06:28:43 145.90 MHz
RS-15 25 Oct 06:37:38 06:48:41 64° 46° (NE) 07:00:08 29.354 - 29.394 USB, Beacon 29.352 USB
JAS-2 25 Oct 06:53:33 07:01:22 89° 285° (WNW) 07:09:13 435.800 - 435.900 CW/SSB, 435.910 FM
Uosat F 25 Oct 06:58:00 07:01:54 23° 298° (WNW) 07:05:47 435.120 FM
AO-7 25 Oct 07:10:14 07:17:34 37° 304° (NW) 07:24:55 29.400 - 29.500 MHz
Saudisat 1A 25 Oct 07:14:32 07:18:02 24° 114° (ESE) 07:21:34 436.775 MHz
Sapphire 25 Oct 07:15:21 07:17:23 12° 334° (NNW) 07:19:26 437.095 MHz 1200 baud AX-25 AFSK
SO-67 25 Oct 07:24:08 07:26:39 19° 93° (E) 07:29:10 435.3500 MHz FM
STRAND 1 25 Oct 07:54:16 07:58:45 30° 265° (W) 08:03:17 ?
Hamsat 25 Oct 07:57:20 08:00:46 25° 293° (WNW) 08:04:12 145.90 MHz
JAS-2 25 Oct 08:39:45 08:45:26 23° 304° (NW) 08:51:13 435.800 - 435.900 CW/SSB, 435.910 FM
RS-15 25 Oct 08:50:26 09:00:41 45° 250° (WSW) 09:11:23 29.354 - 29.394 USB, Beacon 29.352 USB
Saudisat 1A 25 Oct 08:53:09 08:57:22 45° 312° (NW) 09:01:38 436.775 MHz
SO-67 25 Oct 08:56:41 08:59:39 27° 290° (WNW) 09:02:37 435.3500 MHz FM
MaSat-1 25 Oct 09:01:52 09:04:28 42° 58° (ENE) 09:06:50 437.345 MHz
AO-7 25 Oct 09:07:49 09:07:56 10° 328° (NNW) 09:08:03 29.400 - 29.500 MHz
HO-68 25 Oct 09:27:50 09:34:28 38° 97° (E) 09:41:03 435.675 MHz FM
UKube-1 25 Oct 09:33:54 09:35:35 12° 89° (E) 09:37:16 145.840 MHz, 145.915 MHz
Oscar 11 25 Oct 10:13:20 10:17:07 29° 96° (E) 10:20:53 145.825 FM, Beacon 2401.500 USB
FUNcube-1 25 Oct 10:13:50 10:15:42 13° 89° (E) 10:17:33 145.950 - 145.970 MHz USB
Saudisat 1A 25 Oct 10:36:36 10:38:03 11° 334° (NNW) 10:39:31 436.775 MHz
Sapphire 25 Oct 10:47:34 10:49:54 13° 28° (NNE) 10:52:15 437.095 MHz 1200 baud AX-25 AFSK
ZACube-1 25 Oct 11:03:45 11:07:50 43° 98° (E) 11:11:49 437.345 MHz
KITSAT 1 25 Oct 11:05:43 11:11:10 20° 102° (ESE) 11:16:36 435.175 FM
UKube-1 25 Oct 11:07:54 11:12:17 72° 286° (WNW) 11:16:37 145.840 MHz, 145.915 MHz
PCSat 25 Oct 11:09:29 11:12:58 17° 34° (NE) 11:16:27 145.825 MHz
HO-68 25 Oct 11:15:28 11:22:17 48° 296° (WNW) 11:29:04 435.675 MHz FM
FUNcube-1 25 Oct 11:48:20 11:52:34 63° 286° (WNW) 11:56:41 145.950 - 145.970 MHz USB
Oscar 11 25 Oct 11:49:33 11:53:15 28° 293° (WNW) 11:56:55 145.825 FM, Beacon 2401.500 USB
ISS 25 Oct 12:23:38 12:26:03 19° 136° (SE) 12:28:30 145.800 FM
Sapphire 25 Oct 12:29:32 12:34:46 46° 51° (NE) 12:39:59 437.095 MHz 1200 baud AX-25 AFSK
Oscar 19 25 Oct 12:34:47 12:38:51 24° 63° (ENE) 12:42:55 437.125 CW, 437.150 USB
ZACube-1 25 Oct 12:40:52 12:43:56 20° 296° (WNW) 12:46:58 437.345 MHz
JAS-1B 25 Oct 12:41:28 12:46:10 26° 61° (ENE) 12:50:48 435.800 - 435.900 CW/SSB
Oscar 10/S400 25 Oct 12:48:25 13:03:43 23° 149° (SSE) 13:18:41 145.825 - 145.975 CW/USB, Beacon 145.810 USB
PCSat 25 Oct 12:51:57 12:57:24 70° 56° (NE) 13:02:48 145.825 MHz
AO-27 25 Oct 12:54:54 12:58:12 17° 58° (ENE) 13:01:31 436.795 MHz FM
SO-50 25 Oct 12:55:48 13:00:01 41° 118° (ESE) 13:04:22 436.795 FM
KITSAT 1 25 Oct 12:57:21 13:05:27 87° 122° (ESE) 13:13:35 435.175 FM
HO-68 25 Oct 13:06:21 13:08:17 11° 318° (NW) 13:10:13 435.675 MHz FM
AO-Echo 25 Oct 13:10:56 13:14:59 26° 63° (ENE) 13:19:09 ?
Oscar 16 25 Oct 13:19:24 13:24:28 59° 71° (ENE) 13:29:32 437.025 USB, Beacon 2401.1428
Uribyol 2 25 Oct 13:40:18 13:45:10 41° 68° (ENE) 13:50:03 436.500 FM
ITAMSAT 1 25 Oct 13:46:26 13:51:20 44° 68° (ENE) 13:56:17 435.822 SSB
ISS 25 Oct 13:59:07 14:02:26 72° 333° (NNW) 14:05:47 145.800 FM
Saudisat 1A 25 Oct 14:00:46 14:01:39 11° 24° (NNE) 14:02:33 436.775 MHz
Gurwin Techsat 1B 25 Oct 14:10:00 14:14:52 39° 67° (ENE) 14:19:46 435.225 FM
Oscar 19 25 Oct 14:12:55 14:17:54 49° 260° (W) 14:22:54 437.125 CW, 437.150 USB
Sapphire 25 Oct 14:13:18 14:18:01 31° 250° (WSW) 14:22:42 437.095 MHz 1200 baud AX-25 AFSK
UOSAT-12 25 Oct 14:16:38 14:20:31 27° 114° (ESE) 14:24:27 437.025 FM, 437.400 FM
TMSAT-1 25 Oct 14:20:54 14:25:42 36° 66° (ENE) 14:30:31 436.925 FM
AO-7 25 Oct 14:28:13 14:34:32 25° 50° (NE) 14:40:52 29.400 - 29.500 MHz
JAS-1B 25 Oct 14:31:00 14:36:40 47° 260° (W) 14:42:08 435.800 - 435.900 CW/SSB
AO-27 25 Oct 14:31:54 14:37:06 76° 257° (WSW) 14:42:22 436.795 MHz FM
PCSat 25 Oct 14:36:33 14:40:14 19° 254° (WSW) 14:43:55 145.825 MHz
SO-50 25 Oct 14:36:38 14:40:41 31° 318° (NW) 14:44:51 436.795 FM
AO-Echo 25 Oct 14:48:51 14:53:30 43° 262° (W) 14:58:21 ?
KITSAT 1 25 Oct 14:54:53 15:01:52 31° 326° (NW) 15:08:52 435.175 FM
Uosat F 25 Oct 14:58:23 15:00:50 14° 56° (ENE) 15:03:18 435.120 FM
Oscar 16 25 Oct 15:00:33 15:04:12 19° 269° (W) 15:07:52 437.025 USB, Beacon 2401.1428
Uribyol 2 25 Oct 15:20:17 15:24:45 28° 265° (W) 15:29:15 436.500 FM
ITAMSAT 1 25 Oct 15:26:39 15:31:00 27° 266° (W) 15:35:23 435.822 SSB
JAS-2 25 Oct 15:28:44 15:30:31 11° 45° (NE) 15:32:21 435.800 - 435.900 CW/SSB, 435.910 FM
ISS 25 Oct 15:36:33 15:39:31 28° 353° (N) 15:42:28 145.800 FM
Saudisat 1A 25 Oct 15:38:16 15:42:27 39° 46° (NE) 15:46:36 436.775 MHz
Gurwin Techsat 1B 25 Oct 15:50:14 15:54:54 31° 265° (W) 15:59:36 435.225 FM
UOSAT-12 25 Oct 15:55:59 16:00:27 45° 313° (NW) 16:05:01 437.025 FM, 437.400 FM
TMSAT-1 25 Oct 16:00:53 16:05:38 33° 264° (W) 16:10:25 436.925 FM
AO-7 25 Oct 16:18:05 16:26:22 88° 251° (WSW) 16:34:43 29.400 - 29.500 MHz
Uosat F 25 Oct 16:33:51 16:38:52 88° 73° (ENE) 16:43:57 435.120 FM
KITSAT 1 25 Oct 16:55:22 17:00:21 17° 355° (N) 17:05:19 435.175 FM
JAS-2 25 Oct 17:07:58 17:13:49 52° 67° (ENE) 17:20:28 435.800 - 435.900 CW/SSB, 435.910 FM
ISS 25 Oct 17:13:43 17:16:48 33° 13° (NNE) 17:19:52 145.800 FM
Hamsat 25 Oct 17:16:37 17:20:18 31° 69° (ENE) 17:23:59 145.90 MHz
Saudisat 1A 25 Oct 17:18:06 17:21:53 28° 245° (WSW) 17:25:39 436.775 MHz
UOSAT-12 25 Oct 17:39:48 17:41:49 12° 335° (NNW) 17:43:50 437.025 FM, 437.400 FM
AO-7 25 Oct 18:14:37 18:20:15 20° 271° (W) 18:25:56 29.400 - 29.500 MHz
OPAL 25 Oct 18:16:05 18:20:59 56° 103° (ESE) 18:25:50 ?
Uosat F 25 Oct 18:16:31 18:18:21 12° 272° (W) 18:20:12 435.120 FM
ISS 25 Oct 18:50:22 18:53:42 71° 212° (SSW) 18:57:01 145.800 FM
Hamsat 25 Oct 18:52:45 18:56:16 25° 266° (W) 18:59:46 145.90 MHz
KITSAT 1 25 Oct 18:53:00 18:59:14 23° 25° (NNE) 19:05:27 435.175 FM
JAS-2 25 Oct 18:54:03 18:59:15 30° 269° (W) 19:05:03 435.800 - 435.900 CW/SSB, 435.910 FM
SO-67 25 Oct 19:30:37 19:34:00 61° 259° (W) 19:37:26 435.3500 MHz FM
SO-50 25 Oct 19:45:19 19:48:25 17° 31° (NNE) 19:51:32 436.795 FM
OPAL 25 Oct 19:55:48 19:59:29 21° 301° (WNW) 20:03:09 ?
HO-68 25 Oct 19:58:51 20:05:15 37° 60° (ENE) 20:11:42 435.675 MHz FM
STRAND 1 25 Oct 20:01:45 20:06:56 78° 104° (ESE) 20:12:05 ?
ISS 25 Oct 20:28:58 20:29:51 11° 229° (SW) 20:30:43 145.800 FM
UKube-1 25 Oct 20:31:17 20:33:50 16° 60° (ENE) 20:36:25 145.840 MHz, 145.915 MHz
KITSAT 1 25 Oct 20:48:21 20:56:24 63° 51° (NE) 21:04:23 435.175 FM
UOSAT-12 25 Oct 21:04:39 21:06:41 13° 25° (NNE) 21:08:43 437.025 FM, 437.400 FM
RS-15 25 Oct 21:06:33 21:15:07 28° 103° (ESE) 21:23:36 29.354 - 29.394 USB, Beacon 29.352 USB
Oscar 11 25 Oct 21:10:27 21:14:16 31° 68° (ENE) 21:18:05 145.825 FM, Beacon 2401.500 USB
FUNcube-1 25 Oct 21:12:00 21:14:49 16° 62° (ENE) 21:17:36 145.950 - 145.970 MHz USB
SO-50 25 Oct 21:24:59 21:29:49 71° 52° (NE) 21:34:42 436.795 FM
STRAND 1 25 Oct 21:42:20 21:45:30 17° 302° (WNW) 21:48:40 ?
HO-68 25 Oct 21:45:52 21:52:46 50° 260° (W) 21:59:44 435.675 MHz FM
ZACube-1 25 Oct 22:01:50 22:06:13 48° 71° (ENE) 22:10:34 437.345 MHz
UKube-1 25 Oct 22:05:14 22:09:33 62° 258° (WSW) 22:13:54 145.840 MHz, 145.915 MHz
MaSat-1 25 Oct 22:43:13 22:43:45 10° 105° (ESE) 22:44:18 437.345 MHz
UOSAT-12 25 Oct 22:43:28 22:48:02 45° 47° (NE) 22:52:31 437.025 FM, 437.400 FM
KITSAT 1 25 Oct 22:44:19 22:51:22 34° 252° (WSW) 22:58:23 435.175 FM
FUNcube-1 25 Oct 22:46:12 22:50:44 62° 259° (W) 22:55:13 145.950 - 145.970 MHz USB
Oscar 11 25 Oct 22:46:47 22:50:27 27° 265° (W) 22:54:08 145.825 FM, Beacon 2401.500 USB
SO-50 25 Oct 23:06:44 23:09:53 17° 250° (WSW) 23:13:02 436.795 FM
RS-15 25 Oct 23:15:06 23:26:07 85° 306° (NW) 23:37:09 29.354 - 29.394 USB, Beacon 29.352 USB
